Year,Month,Day,Hour,Minute,Value (Times are PST for temperature in C)
2019,10,09,00,00,3.30
2019,10,09,00,01,3.30
2019,10,09,00,02,3.20
2019,10,09,00,03,3.20
2019,10,09,00,04,3.20
2019,10,09,00,05,3.20
2019,10,09,00,06,3.20
2019,10,09,00,07,3.20
2019,10,09,00,08,3.20
2019,10,09,00,09,3.20
2019,10,09,00,10,3.20
2019,10,09,00,11,3.20
2019,10,09,00,12,3.10
2019,10,09,00,13,3.10
2019,10,09,00,14,3.10
2019,10,09,00,15,3.10
2019,10,09,00,16,3.10
2019,10,09,00,17,3.00
2019,10,09,00,18,3.00
2019,10,09,00,19,3.00
2019,10,09,00,20,3.00
2019,10,09,00,21,3.00
2019,10,09,00,22,2.90
2019,10,09,00,23,2.90
2019,10,09,00,24,2.90
2019,10,09,00,25,2.90
2019,10,09,00,26,2.90
2019,10,09,00,27,2.90
2019,10,09,00,28,2.90
2019,10,09,00,29,2.80
2019,10,09,00,30,2.80
2019,10,09,00,31,2.80
2019,10,09,00,32,2.90
2019,10,09,00,33,2.80
2019,10,09,00,34,2.80
2019,10,09,00,35,2.80
2019,10,09,00,36,2.80
2019,10,09,00,37,2.80
2019,10,09,00,38,2.80
2019,10,09,00,39,2.80
2019,10,09,00,40,2.80
2019,10,09,00,41,2.90
2019,10,09,00,42,2.90
2019,10,09,00,43,2.90
2019,10,09,00,44,2.90
2019,10,09,00,45,2.90
2019,10,09,00,46,2.90
2019,10,09,00,47,2.90
2019,10,09,00,48,2.90
2019,10,09,00,49,2.90
2019,10,09,00,50,2.90
2019,10,09,00,51,2.90
2019,10,09,00,52,3.00
2019,10,09,00,53,3.00
2019,10,09,00,54,3.00
2019,10,09,00,55,3.00
2019,10,09,00,56,3.00
2019,10,09,00,57,3.00
2019,10,09,00,58,3.10
2019,10,09,00,59,3.10
2019,10,09,01,00,3.10
2019,10,09,01,01,3.10
2019,10,09,01,02,3.20
2019,10,09,01,03,3.20
2019,10,09,01,04,3.20
2019,10,09,01,05,3.20
2019,10,09,01,06,3.20
2019,10,09,01,07,3.20
2019,10,09,01,08,3.20
2019,10,09,01,09,3.30
2019,10,09,01,10,3.30
2019,10,09,01,11,3.30
2019,10,09,01,12,3.30
2019,10,09,01,13,3.30
2019,10,09,01,14,3.30
2019,10,09,01,15,3.30
2019,10,09,01,16,3.40
2019,10,09,01,17,3.40
2019,10,09,01,18,3.40
2019,10,09,01,19,3.40
2019,10,09,01,20,3.40
2019,10,09,01,21,3.40
2019,10,09,01,22,3.50
2019,10,09,01,23,3.50
2019,10,09,01,24,3.50
2019,10,09,01,25,3.50
2019,10,09,01,26,3.50
2019,10,09,01,27,3.50
2019,10,09,01,28,3.60
2019,10,09,01,29,3.60
2019,10,09,01,30,3.60
2019,10,09,01,31,3.60
2019,10,09,01,32,3.60
2019,10,09,01,33,3.60
2019,10,09,01,34,3.60
2019,10,09,01,35,3.60
2019,10,09,01,36,3.60
2019,10,09,01,37,3.60
2019,10,09,01,38,3.60
2019,10,09,01,39,3.60
2019,10,09,01,40,3.60
2019,10,09,01,41,3.60
2019,10,09,01,42,3.60
2019,10,09,01,43,3.60
2019,10,09,01,44,3.60
2019,10,09,01,45,3.60
2019,10,09,01,46,3.60
2019,10,09,01,47,3.60
2019,10,09,01,48,3.60
2019,10,09,01,49,3.60
2019,10,09,01,50,3.60
2019,10,09,01,51,3.60
2019,10,09,01,52,3.60
2019,10,09,01,53,3.60
2019,10,09,01,54,3.60
2019,10,09,01,55,3.50
2019,10,09,01,56,3.50
2019,10,09,01,57,3.50
2019,10,09,01,58,3.50
2019,10,09,01,59,3.50
2019,10,09,02,00,3.50
2019,10,09,02,01,3.50
2019,10,09,02,02,3.40
2019,10,09,02,03,3.40
2019,10,09,02,04,3.40
2019,10,09,02,05,3.40
2019,10,09,02,06,3.40
2019,10,09,02,07,3.30
2019,10,09,02,08,3.30
2019,10,09,02,09,3.30
2019,10,09,02,10,3.30
2019,10,09,02,11,3.30
2019,10,09,02,12,3.30
2019,10,09,02,13,3.30
2019,10,09,02,14,3.30
2019,10,09,02,15,3.30
2019,10,09,02,16,3.30
2019,10,09,02,17,3.30
2019,10,09,02,18,3.20
2019,10,09,02,19,3.20
2019,10,09,02,20,3.20
2019,10,09,02,21,3.20
2019,10,09,02,22,3.20
2019,10,09,02,23,3.20
2019,10,09,02,24,3.20
2019,10,09,02,25,3.20
2019,10,09,02,26,3.10
2019,10,09,02,27,3.10
2019,10,09,02,28,3.10
2019,10,09,02,29,3.10
2019,10,09,02,30,3.10
2019,10,09,02,31,3.00
2019,10,09,02,32,3.00
2019,10,09,02,33,3.00
2019,10,09,02,34,3.00
2019,10,09,02,35,2.90
2019,10,09,02,36,2.90
2019,10,09,02,37,2.90
2019,10,09,02,38,2.90
2019,10,09,02,39,2.90
2019,10,09,02,40,2.90
2019,10,09,02,41,2.90
2019,10,09,02,42,2.80
2019,10,09,02,43,2.80
2019,10,09,02,44,2.80
2019,10,09,02,45,2.80
2019,10,09,02,46,2.80
2019,10,09,02,47,2.80
2019,10,09,02,48,2.80
2019,10,09,02,49,2.80
2019,10,09,02,50,2.80
2019,10,09,02,51,2.80
2019,10,09,02,52,2.80
2019,10,09,02,53,2.70
2019,10,09,02,54,2.70
2019,10,09,02,55,2.80
2019,10,09,02,56,2.80
2019,10,09,02,57,2.80
2019,10,09,02,58,2.80
2019,10,09,02,59,2.90
2019,10,09,03,00,2.90
2019,10,09,03,01,2.90
2019,10,09,03,02,2.90
2019,10,09,03,03,2.90
2019,10,09,03,04,2.90
2019,10,09,03,05,2.90
2019,10,09,03,06,2.90
2019,10,09,03,07,2.90
2019,10,09,03,08,3.00
2019,10,09,03,09,2.90
2019,10,09,03,10,2.90
2019,10,09,03,11,2.90
2019,10,09,03,12,2.90
2019,10,09,03,13,2.90
2019,10,09,03,14,2.90
2019,10,09,03,15,2.90
2019,10,09,03,16,2.90
2019,10,09,03,17,2.90
2019,10,09,03,18,2.90
2019,10,09,03,19,3.00
2019,10,09,03,20,3.00
2019,10,09,03,21,2.90
2019,10,09,03,22,2.90
2019,10,09,03,23,2.90
2019,10,09,03,24,2.90
2019,10,09,03,25,2.90
2019,10,09,03,26,2.90
2019,10,09,03,27,2.80
2019,10,09,03,28,2.80
2019,10,09,03,29,2.80
2019,10,09,03,30,2.80
2019,10,09,03,31,2.80
2019,10,09,03,32,2.80
2019,10,09,03,33,2.80
2019,10,09,03,34,2.80
2019,10,09,03,35,2.80
2019,10,09,03,36,2.80
2019,10,09,03,37,2.80
2019,10,09,03,38,2.80
2019,10,09,03,39,2.80
2019,10,09,03,40,2.80
2019,10,09,03,41,2.80
2019,10,09,03,42,2.80
2019,10,09,03,43,2.80
2019,10,09,03,44,2.70
2019,10,09,03,45,2.70
2019,10,09,03,46,2.70
2019,10,09,03,47,2.70
2019,10,09,03,48,2.70
2019,10,09,03,49,2.70
2019,10,09,03,50,2.60
2019,10,09,03,51,2.60
2019,10,09,03,52,2.60
2019,10,09,03,53,2.60
2019,10,09,03,54,2.60
2019,10,09,03,55,2.60
2019,10,09,03,56,2.60
2019,10,09,03,57,2.60
2019,10,09,03,58,2.50
2019,10,09,03,59,2.50
2019,10,09,04,00,2.50
2019,10,09,04,01,2.50
2019,10,09,04,02,2.50
2019,10,09,04,03,2.50
2019,10,09,04,04,2.50
2019,10,09,04,05,2.50
2019,10,09,04,06,2.50
2019,10,09,04,07,2.50
2019,10,09,04,08,2.40
2019,10,09,04,09,2.40
2019,10,09,04,10,2.40
2019,10,09,04,11,2.40
2019,10,09,04,12,2.40
2019,10,09,04,13,2.40
2019,10,09,04,14,2.50
2019,10,09,04,15,2.50
2019,10,09,04,16,2.50
2019,10,09,04,17,2.50
2019,10,09,04,18,2.50
2019,10,09,04,19,2.50
2019,10,09,04,20,2.50
2019,10,09,04,21,2.50
2019,10,09,04,22,2.50
2019,10,09,04,23,2.50
2019,10,09,04,24,2.50
2019,10,09,04,25,2.50
2019,10,09,04,26,2.50
2019,10,09,04,27,2.50
2019,10,09,04,28,2.50
2019,10,09,04,29,2.50
2019,10,09,04,30,2.50
2019,10,09,04,31,2.40
2019,10,09,04,32,2.40
2019,10,09,04,33,2.40
2019,10,09,04,34,2.40
2019,10,09,04,35,2.40
2019,10,09,04,36,2.30
2019,10,09,04,37,2.30
2019,10,09,04,38,2.30
2019,10,09,04,39,2.30
2019,10,09,04,40,2.20
2019,10,09,04,41,2.20
2019,10,09,04,42,2.10
2019,10,09,04,43,2.10
2019,10,09,04,44,2.00
2019,10,09,04,45,2.00
2019,10,09,04,46,2.00
2019,10,09,04,47,1.90
2019,10,09,04,48,1.90
2019,10,09,04,49,1.90
2019,10,09,04,50,1.80
2019,10,09,04,51,1.80
2019,10,09,04,52,1.80
2019,10,09,04,53,1.80
2019,10,09,04,54,1.80
2019,10,09,04,55,1.80
2019,10,09,04,56,1.80
2019,10,09,04,57,1.70
2019,10,09,04,58,1.70
2019,10,09,04,59,1.70
2019,10,09,05,00,1.70
2019,10,09,05,01,1.60
2019,10,09,05,02,1.60
2019,10,09,05,03,1.60
2019,10,09,05,04,1.50
2019,10,09,05,05,1.50
2019,10,09,05,06,1.50
2019,10,09,05,07,1.40
2019,10,09,05,08,1.40
2019,10,09,05,09,1.40
2019,10,09,05,10,1.40
2019,10,09,05,11,1.30
2019,10,09,05,12,1.30
2019,10,09,05,13,1.30
2019,10,09,05,14,1.30
2019,10,09,05,15,1.20
2019,10,09,05,16,1.20
2019,10,09,05,17,1.20
2019,10,09,05,18,1.20
2019,10,09,05,19,1.20
2019,10,09,05,20,1.10
2019,10,09,05,21,1.10
2019,10,09,05,22,1.10
2019,10,09,05,23,1.10
2019,10,09,05,24,1.00
2019,10,09,05,25,1.00
2019,10,09,05,26,1.00
2019,10,09,05,27,1.00
2019,10,09,05,28,0.90
2019,10,09,05,29,0.90
2019,10,09,05,30,0.90
2019,10,09,05,31,0.90
2019,10,09,05,32,0.90
2019,10,09,05,33,0.80
2019,10,09,05,34,0.80
2019,10,09,05,35,0.80
2019,10,09,05,36,0.80
2019,10,09,05,37,0.80
2019,10,09,05,38,0.80
2019,10,09,05,39,0.70
2019,10,09,05,40,0.70
2019,10,09,05,41,0.70
2019,10,09,05,42,0.70
2019,10,09,05,43,0.70
2019,10,09,05,44,0.70
2019,10,09,05,45,0.60
2019,10,09,05,46,0.60
2019,10,09,05,47,0.60
2019,10,09,05,48,0.60
2019,10,09,05,49,0.50
2019,10,09,05,50,0.50
2019,10,09,05,51,0.50
2019,10,09,05,52,0.50
2019,10,09,05,53,0.50
2019,10,09,05,54,0.50
2019,10,09,05,55,0.40
2019,10,09,05,56,0.40
2019,10,09,05,57,0.40
2019,10,09,05,58,0.40
2019,10,09,05,59,0.40
2019,10,09,06,00,0.40
2019,10,09,06,01,0.40
2019,10,09,06,02,0.40
2019,10,09,06,03,0.30
2019,10,09,06,04,0.30
2019,10,09,06,05,0.30
2019,10,09,06,06,0.30
2019,10,09,06,07,0.30
2019,10,09,06,08,0.30
2019,10,09,06,09,0.30
2019,10,09,06,10,0.30
2019,10,09,06,11,0.30
2019,10,09,06,12,0.30
2019,10,09,06,13,0.30
2019,10,09,06,14,0.20
2019,10,09,06,15,0.20
2019,10,09,06,16,0.20
2019,10,09,06,17,0.20
2019,10,09,06,18,0.20
2019,10,09,06,19,0.20
2019,10,09,06,20,0.20
2019,10,09,06,21,0.20
2019,10,09,06,22,0.20
2019,10,09,06,23,0.10
2019,10,09,06,24,0.10
2019,10,09,06,25,0.10
2019,10,09,06,26,0.10
2019,10,09,06,27,0.10
2019,10,09,06,28,0.10
2019,10,09,06,29,0.00
2019,10,09,06,30,0.00
2019,10,09,06,31,0.00
2019,10,09,06,32,0.00
2019,10,09,06,33,0.00
2019,10,09,06,34,0.00
2019,10,09,06,35,0.00
2019,10,09,06,36,-0.10
2019,10,09,06,37,-0.10
2019,10,09,06,38,-0.10
2019,10,09,06,39,-0.10
2019,10,09,06,40,-0.10
2019,10,09,06,41,-0.10
2019,10,09,06,42,-0.10
2019,10,09,06,43,-0.10
2019,10,09,06,44,-0.10
2019,10,09,06,45,-0.10
2019,10,09,06,46,-0.10
2019,10,09,06,47,-0.20
2019,10,09,06,48,-0.20
2019,10,09,06,49,-0.20
2019,10,09,06,50,-0.20
2019,10,09,06,51,-0.20
2019,10,09,06,52,-0.20
2019,10,09,06,53,-0.20
2019,10,09,06,54,-0.20
2019,10,09,06,55,-0.20
2019,10,09,06,56,-0.20
2019,10,09,06,57,-0.20
2019,10,09,06,58,-0.20
2019,10,09,06,59,-0.20
2019,10,09,07,00,-0.20
2019,10,09,07,01,-0.20
2019,10,09,07,02,-0.20
2019,10,09,07,03,-0.20
2019,10,09,07,04,-0.20
2019,10,09,07,05,-0.20
2019,10,09,07,06,-0.20
2019,10,09,07,07,-0.20
2019,10,09,07,08,-0.20
2019,10,09,07,09,-0.20
2019,10,09,07,10,-0.20
2019,10,09,07,11,-0.20
2019,10,09,07,12,-0.20
2019,10,09,07,13,-0.30
2019,10,09,07,14,-0.30
2019,10,09,07,15,-0.30
2019,10,09,07,16,-0.30
2019,10,09,07,17,-0.30
2019,10,09,07,18,-0.30
2019,10,09,07,19,-0.30
2019,10,09,07,20,-0.30
2019,10,09,07,21,-0.30
2019,10,09,07,22,-0.30
2019,10,09,07,23,-0.30
2019,10,09,07,24,-0.30
2019,10,09,07,25,-0.40
2019,10,09,07,26,-0.40
2019,10,09,07,27,-0.40
2019,10,09,07,28,-0.40
2019,10,09,07,29,-0.40
2019,10,09,07,30,-0.40
2019,10,09,07,31,-0.40
2019,10,09,07,32,-0.40
2019,10,09,07,33,-0.40
2019,10,09,07,34,-0.40
2019,10,09,07,35,-0.40
2019,10,09,07,36,-0.40
2019,10,09,07,37,-0.40
2019,10,09,07,38,-0.40
2019,10,09,07,39,-0.40
2019,10,09,07,40,-0.40
2019,10,09,07,41,-0.40
2019,10,09,07,42,-0.40
2019,10,09,07,43,-0.40
2019,10,09,07,44,-0.40
2019,10,09,07,45,-0.40
2019,10,09,07,46,-0.40
2019,10,09,07,47,-0.40
2019,10,09,07,48,-0.40
2019,10,09,07,49,-0.40
2019,10,09,07,50,-0.40
2019,10,09,07,51,-0.40
2019,10,09,07,52,-0.40
2019,10,09,07,53,-0.40
2019,10,09,07,54,-0.40
2019,10,09,07,55,-0.40
2019,10,09,07,56,-0.40
2019,10,09,07,57,-0.30
2019,10,09,07,58,-0.30
2019,10,09,07,59,-0.30
2019,10,09,08,00,-0.30
2019,10,09,08,01,-0.30
2019,10,09,08,02,-0.30
2019,10,09,08,03,-0.30
2019,10,09,08,04,-0.20
2019,10,09,08,05,-0.20
2019,10,09,08,06,-0.20
2019,10,09,08,07,-0.20
2019,10,09,08,08,-0.20
2019,10,09,08,09,-0.10
2019,10,09,08,10,-0.10
2019,10,09,08,11,-0.10
2019,10,09,08,12,-0.10
2019,10,09,08,13,-0.10
2019,10,09,08,14,0.00
2019,10,09,08,15,0.00
2019,10,09,08,16,0.00
2019,10,09,08,17,0.00
2019,10,09,08,18,0.10
2019,10,09,08,19,0.10
2019,10,09,08,20,0.10
2019,10,09,08,21,0.10
2019,10,09,08,22,0.20
2019,10,09,08,23,0.20
2019,10,09,08,24,0.20
2019,10,09,08,25,0.30
2019,10,09,08,26,0.30
2019,10,09,08,27,0.30
2019,10,09,08,28,0.30
2019,10,09,08,29,0.40
2019,10,09,08,30,0.40
2019,10,09,08,31,0.40
2019,10,09,08,32,0.50
2019,10,09,08,33,0.50
2019,10,09,08,34,0.50
2019,10,09,08,35,0.60
2019,10,09,08,36,0.60
2019,10,09,08,37,0.60
2019,10,09,08,38,0.70
2019,10,09,08,39,0.70
2019,10,09,08,40,0.70
2019,10,09,08,41,0.70
2019,10,09,08,42,0.80
2019,10,09,08,43,0.80
2019,10,09,08,44,0.90
2019,10,09,08,45,0.90
2019,10,09,08,46,1.00
2019,10,09,08,47,1.00
2019,10,09,08,48,1.10
2019,10,09,08,49,1.10
2019,10,09,08,50,1.20
2019,10,09,08,51,1.20
2019,10,09,08,52,1.30
2019,10,09,08,53,1.30
2019,10,09,08,54,1.40
2019,10,09,08,55,1.50
2019,10,09,08,56,1.50
2019,10,09,08,57,1.60
2019,10,09,08,58,1.60
2019,10,09,08,59,1.70
2019,10,09,09,00,1.80
2019,10,09,09,01,1.80
2019,10,09,09,02,1.90
2019,10,09,09,03,2.00
2019,10,09,09,04,2.00
2019,10,09,09,05,2.00
2019,10,09,09,06,2.10
2019,10,09,09,07,2.10
2019,10,09,09,08,2.10
2019,10,09,09,09,2.20
2019,10,09,09,10,2.20
2019,10,09,09,11,2.20
2019,10,09,09,12,2.30
2019,10,09,09,13,2.30
2019,10,09,09,14,2.40
2019,10,09,09,15,2.40
2019,10,09,09,16,2.50
2019,10,09,09,17,2.50
2019,10,09,09,18,2.60
2019,10,09,09,19,2.60
2019,10,09,09,20,2.70
2019,10,09,09,21,2.70
2019,10,09,09,22,2.80
2019,10,09,09,23,2.90
2019,10,09,09,24,2.90
2019,10,09,09,25,3.00
2019,10,09,09,26,3.10
2019,10,09,09,27,3.10
2019,10,09,09,28,3.20
2019,10,09,09,29,3.30
2019,10,09,09,30,3.40
2019,10,09,09,31,3.50
2019,10,09,09,32,3.70
2019,10,09,09,33,3.80
2019,10,09,09,34,3.90
2019,10,09,09,35,4.00
2019,10,09,09,36,4.00
2019,10,09,09,37,4.10
2019,10,09,09,38,4.20
2019,10,09,09,39,4.30
2019,10,09,09,40,4.40
2019,10,09,09,41,4.50
2019,10,09,09,42,4.50
2019,10,09,09,43,4.60
2019,10,09,09,44,4.70
2019,10,09,09,45,4.80
2019,10,09,09,46,4.80
2019,10,09,09,47,4.90
2019,10,09,09,48,4.90
2019,10,09,09,49,5.00
2019,10,09,09,50,5.10
2019,10,09,09,51,5.20
2019,10,09,09,52,5.30
2019,10,09,09,53,5.40
2019,10,09,09,54,5.40
2019,10,09,09,55,5.50
2019,10,09,09,56,5.60
2019,10,09,09,57,5.70
2019,10,09,09,58,5.80
2019,10,09,09,59,5.80
2019,10,09,10,00,5.90
2019,10,09,10,01,6.00
2019,10,09,10,02,6.00
2019,10,09,10,03,6.10
2019,10,09,10,04,6.20
2019,10,09,10,05,6.20
2019,10,09,10,06,6.30
2019,10,09,10,07,6.30
2019,10,09,10,08,6.40
2019,10,09,10,09,6.40
2019,10,09,10,10,6.50
2019,10,09,10,11,6.60
2019,10,09,10,12,6.70
2019,10,09,10,13,6.70
2019,10,09,10,14,6.80
2019,10,09,10,15,6.90
2019,10,09,10,16,6.90
2019,10,09,10,17,7.00
2019,10,09,10,18,7.10
2019,10,09,10,19,7.10
2019,10,09,10,20,7.20
2019,10,09,10,21,7.20
2019,10,09,10,22,7.30
2019,10,09,10,23,7.30
2019,10,09,10,24,7.40
2019,10,09,10,25,7.40
2019,10,09,10,26,7.50
2019,10,09,10,27,7.50
2019,10,09,10,28,7.50
2019,10,09,10,29,7.60
2019,10,09,10,30,7.60
2019,10,09,10,31,7.60
2019,10,09,10,32,7.60
2019,10,09,10,33,7.60
2019,10,09,10,34,7.60
2019,10,09,10,35,7.70
2019,10,09,10,36,7.70
2019,10,09,10,37,7.70
2019,10,09,10,38,7.80
2019,10,09,10,39,7.80
2019,10,09,10,40,7.80
2019,10,09,10,41,7.90
2019,10,09,10,42,7.90
2019,10,09,10,43,7.90
2019,10,09,10,44,7.90
2019,10,09,10,45,8.00
2019,10,09,10,46,8.00
2019,10,09,10,47,8.00
2019,10,09,10,48,8.10
2019,10,09,10,49,8.10
2019,10,09,10,50,8.00
2019,10,09,10,51,8.00
2019,10,09,10,52,8.00
2019,10,09,10,53,8.00
2019,10,09,10,54,8.00
2019,10,09,10,55,8.00
2019,10,09,10,56,8.00
2019,10,09,10,57,8.00
2019,10,09,10,58,8.00
2019,10,09,10,59,8.00
2019,10,09,11,00,8.00
2019,10,09,11,01,8.00
2019,10,09,11,02,8.00
2019,10,09,11,03,8.00
2019,10,09,11,04,8.00
2019,10,09,11,05,8.10
2019,10,09,11,06,8.10
2019,10,09,11,07,8.10
2019,10,09,11,08,8.10
2019,10,09,11,09,8.10
2019,10,09,11,10,8.10
2019,10,09,11,11,8.10
2019,10,09,11,12,8.10
2019,10,09,11,13,8.20
2019,10,09,11,14,8.20
2019,10,09,11,15,8.20
2019,10,09,11,16,8.30
2019,10,09,11,17,8.30
2019,10,09,11,18,8.30
2019,10,09,11,19,8.30
2019,10,09,11,20,8.40
2019,10,09,11,21,8.40
2019,10,09,11,22,8.40
2019,10,09,11,23,8.40
2019,10,09,11,24,8.40
2019,10,09,11,25,8.40
2019,10,09,11,26,8.40
2019,10,09,11,27,8.40
2019,10,09,11,28,8.40
2019,10,09,11,29,8.40
2019,10,09,11,30,8.40
2019,10,09,11,31,8.40
2019,10,09,11,32,8.40
2019,10,09,11,33,8.40
2019,10,09,11,34,8.50
2019,10,09,11,35,8.50
2019,10,09,11,36,8.50
2019,10,09,11,37,8.60
2019,10,09,11,38,8.60
2019,10,09,11,39,8.60
2019,10,09,11,40,8.70
2019,10,09,11,41,8.70
2019,10,09,11,42,8.70
2019,10,09,11,43,8.70
2019,10,09,11,44,8.80
2019,10,09,11,45,8.80
2019,10,09,11,46,8.80
2019,10,09,11,47,8.80
2019,10,09,11,48,8.80
2019,10,09,11,49,8.80
2019,10,09,11,50,8.80
2019,10,09,11,51,8.80
2019,10,09,11,52,8.80
2019,10,09,11,53,8.80
2019,10,09,11,54,8.90
2019,10,09,11,55,8.90
2019,10,09,11,56,9.00
2019,10,09,11,57,9.00
2019,10,09,11,58,9.10
2019,10,09,11,59,9.10
2019,10,09,12,00,9.10
2019,10,09,12,01,9.20
2019,10,09,12,02,9.20
2019,10,09,12,03,9.20
2019,10,09,12,04,9.20
2019,10,09,12,05,9.20
2019,10,09,12,06,9.20
2019,10,09,12,07,9.30
2019,10,09,12,08,9.30
2019,10,09,12,09,9.30
2019,10,09,12,10,9.40
2019,10,09,12,11,9.40
2019,10,09,12,12,9.40
2019,10,09,12,13,9.40
2019,10,09,12,14,9.40
2019,10,09,12,15,9.40
2019,10,09,12,16,9.40
2019,10,09,12,17,9.40
2019,10,09,12,18,9.40
2019,10,09,12,19,9.40
2019,10,09,12,20,9.40
2019,10,09,12,21,9.30
2019,10,09,12,22,9.30
2019,10,09,12,23,9.30
2019,10,09,12,24,9.30
2019,10,09,12,25,9.30
2019,10,09,12,26,9.30
2019,10,09,12,27,9.30
2019,10,09,12,28,9.30
2019,10,09,12,29,9.30
2019,10,09,12,30,9.30
2019,10,09,12,31,9.30
2019,10,09,12,32,9.30
2019,10,09,12,33,9.30
2019,10,09,12,34,9.30
2019,10,09,12,35,9.30
2019,10,09,12,36,9.30
2019,10,09,12,37,9.30
2019,10,09,12,38,9.30
2019,10,09,12,39,9.30
2019,10,09,12,40,9.30
2019,10,09,12,41,9.30
2019,10,09,12,42,9.30
2019,10,09,12,43,9.30
2019,10,09,12,44,9.30
2019,10,09,12,45,9.30
2019,10,09,12,46,9.40
2019,10,09,12,47,9.40
2019,10,09,12,48,9.40
2019,10,09,12,49,9.40
2019,10,09,12,50,9.40
2019,10,09,12,51,9.40
2019,10,09,12,52,9.40
2019,10,09,12,53,9.30
2019,10,09,12,54,9.30
2019,10,09,12,55,9.30
2019,10,09,12,56,9.40
2019,10,09,12,57,9.40
2019,10,09,12,58,9.40
2019,10,09,12,59,9.40
2019,10,09,13,00,9.40
2019,10,09,13,01,9.50
2019,10,09,13,02,9.50
2019,10,09,13,03,9.50
2019,10,09,13,04,9.50
2019,10,09,13,05,9.50
2019,10,09,13,06,9.50
2019,10,09,13,07,9.50
2019,10,09,13,08,9.60
2019,10,09,13,09,9.60
2019,10,09,13,10,9.60
2019,10,09,13,11,9.60
2019,10,09,13,12,9.60
2019,10,09,13,13,9.60
2019,10,09,13,14,9.60
2019,10,09,13,15,9.60
2019,10,09,13,16,9.60
2019,10,09,13,17,9.60
2019,10,09,13,18,9.50
2019,10,09,13,19,9.50
2019,10,09,13,20,9.60
2019,10,09,13,21,9.50
2019,10,09,13,22,9.50
2019,10,09,13,23,9.40
2019,10,09,13,24,9.40
2019,10,09,13,25,9.40
2019,10,09,13,26,9.30
2019,10,09,13,27,9.30
2019,10,09,13,28,9.30
2019,10,09,13,29,9.30
2019,10,09,13,30,9.30
2019,10,09,13,31,9.30
2019,10,09,13,32,9.30
2019,10,09,13,33,9.30
2019,10,09,13,34,9.30
2019,10,09,13,35,9.30
2019,10,09,13,36,9.30
2019,10,09,13,37,9.30
2019,10,09,13,38,9.30
2019,10,09,13,39,9.30
2019,10,09,13,40,9.30
2019,10,09,13,41,9.30
2019,10,09,13,42,9.30
2019,10,09,13,43,9.30
2019,10,09,13,44,9.40
2019,10,09,13,45,9.40
2019,10,09,13,46,9.40
2019,10,09,13,47,9.40
2019,10,09,13,48,9.40
2019,10,09,13,49,9.40
2019,10,09,13,50,9.40
2019,10,09,13,51,9.30
2019,10,09,13,52,9.30
2019,10,09,13,53,9.30
2019,10,09,13,54,9.30
2019,10,09,13,55,9.30
2019,10,09,13,56,9.20
2019,10,09,13,57,9.20
2019,10,09,13,58,9.20
2019,10,09,13,59,9.20
2019,10,09,14,00,9.20
2019,10,09,14,01,9.20
2019,10,09,14,02,9.20
2019,10,09,14,03,9.20
2019,10,09,14,04,9.20
2019,10,09,14,05,9.20
2019,10,09,14,06,9.20
2019,10,09,14,07,9.20
2019,10,09,14,08,9.20
2019,10,09,14,09,9.20
2019,10,09,14,10,9.20
2019,10,09,14,11,9.20
2019,10,09,14,12,9.30
2019,10,09,14,13,9.30
2019,10,09,14,14,9.30
2019,10,09,14,15,9.30
2019,10,09,14,16,9.30
2019,10,09,14,17,9.30
2019,10,09,14,18,9.30
2019,10,09,14,19,9.30
2019,10,09,14,20,9.30
2019,10,09,14,21,9.30
2019,10,09,14,22,9.30
2019,10,09,14,23,9.30
2019,10,09,14,24,9.30
2019,10,09,14,25,9.30
2019,10,09,14,26,9.20
2019,10,09,14,27,9.20
2019,10,09,14,28,9.20
2019,10,09,14,29,9.20
2019,10,09,14,30,9.20
2019,10,09,14,31,9.20
2019,10,09,14,32,9.20
2019,10,09,14,33,9.20
2019,10,09,14,34,9.20
2019,10,09,14,35,9.20
2019,10,09,14,36,9.10
2019,10,09,14,37,9.10
2019,10,09,14,38,9.10
2019,10,09,14,39,9.20
2019,10,09,14,40,9.20
2019,10,09,14,41,9.20
2019,10,09,14,42,9.10
2019,10,09,14,43,9.10
2019,10,09,14,44,9.10
2019,10,09,14,45,9.10
2019,10,09,14,46,9.10
2019,10,09,14,47,9.10
2019,10,09,14,48,9.00
2019,10,09,14,49,9.00
2019,10,09,14,50,8.90
2019,10,09,14,51,8.90
2019,10,09,14,52,8.90
2019,10,09,14,53,8.90
2019,10,09,14,54,8.90
2019,10,09,14,55,8.90
2019,10,09,14,56,8.80
2019,10,09,14,57,8.80
2019,10,09,14,58,8.80
2019,10,09,14,59,8.80
2019,10,09,15,00,8.80
2019,10,09,15,01,8.70
2019,10,09,15,02,8.70
2019,10,09,15,03,8.70
2019,10,09,15,04,8.70
2019,10,09,15,05,8.60
2019,10,09,15,06,8.60
2019,10,09,15,07,8.60
2019,10,09,15,08,8.50
2019,10,09,15,09,8.50
2019,10,09,15,10,8.40
2019,10,09,15,11,8.40
2019,10,09,15,12,8.40
2019,10,09,15,13,8.30
2019,10,09,15,14,8.30
2019,10,09,15,15,8.30
2019,10,09,15,16,8.20
2019,10,09,15,17,8.20
2019,10,09,15,18,8.20
2019,10,09,15,19,8.10
2019,10,09,15,20,8.10
2019,10,09,15,21,8.10
2019,10,09,15,22,8.00
2019,10,09,15,23,7.90
2019,10,09,15,24,7.90
2019,10,09,15,25,7.80
2019,10,09,15,26,7.80
2019,10,09,15,27,7.80
2019,10,09,15,28,7.70
2019,10,09,15,29,7.70
2019,10,09,15,30,7.60
2019,10,09,15,31,7.60
2019,10,09,15,32,7.50
2019,10,09,15,33,7.50
2019,10,09,15,34,7.40
2019,10,09,15,35,7.40
2019,10,09,15,36,7.40
2019,10,09,15,37,7.30
2019,10,09,15,38,7.30
2019,10,09,15,39,7.30
2019,10,09,15,40,7.30
2019,10,09,15,41,7.30
2019,10,09,15,42,7.20
2019,10,09,15,43,7.20
2019,10,09,15,44,7.20
2019,10,09,15,45,7.10
2019,10,09,15,46,7.10
2019,10,09,15,47,7.10
2019,10,09,15,48,7.10
2019,10,09,15,49,7.00
2019,10,09,15,50,7.00
2019,10,09,15,51,7.00
2019,10,09,15,52,6.90
2019,10,09,15,53,6.90
2019,10,09,15,54,6.80
2019,10,09,15,55,6.80
2019,10,09,15,56,6.80
2019,10,09,15,57,6.70
2019,10,09,15,58,6.70
2019,10,09,15,59,6.60
2019,10,09,16,00,6.60
2019,10,09,16,01,6.60
2019,10,09,16,02,6.60
2019,10,09,16,03,6.50
2019,10,09,16,04,6.50
2019,10,09,16,05,6.50
2019,10,09,16,06,6.50
2019,10,09,16,07,6.40
2019,10,09,16,08,6.40
2019,10,09,16,09,6.40
2019,10,09,16,10,6.30
2019,10,09,16,11,6.30
2019,10,09,16,12,6.30
2019,10,09,16,13,6.20
2019,10,09,16,14,6.20
2019,10,09,16,15,6.20
2019,10,09,16,16,6.20
2019,10,09,16,17,6.20
2019,10,09,16,18,6.10
2019,10,09,16,19,6.10
2019,10,09,16,20,6.00
2019,10,09,16,21,6.00
2019,10,09,16,22,6.00
2019,10,09,16,23,5.90
2019,10,09,16,24,5.90
2019,10,09,16,25,5.90
2019,10,09,16,26,5.80
2019,10,09,16,27,5.80
2019,10,09,16,28,5.80
2019,10,09,16,29,5.80
2019,10,09,16,30,5.80
2019,10,09,16,31,5.80
2019,10,09,16,32,5.80
2019,10,09,16,33,5.70
2019,10,09,16,34,5.70
2019,10,09,16,35,5.70
2019,10,09,16,36,5.70
2019,10,09,16,37,5.70
2019,10,09,16,38,5.70
2019,10,09,16,39,5.60
2019,10,09,16,40,5.60
2019,10,09,16,41,5.60
2019,10,09,16,42,5.60
2019,10,09,16,43,5.60
2019,10,09,16,44,5.60
2019,10,09,16,45,5.50
2019,10,09,16,46,5.50
2019,10,09,16,47,5.50
2019,10,09,16,48,5.50
2019,10,09,16,49,5.40
2019,10,09,16,50,5.40
2019,10,09,16,51,5.40
2019,10,09,16,52,5.40
2019,10,09,16,53,5.40
2019,10,09,16,54,5.40
2019,10,09,16,55,5.30
2019,10,09,16,56,5.30
2019,10,09,16,57,5.30
2019,10,09,16,58,5.30
2019,10,09,16,59,5.20
2019,10,09,17,00,5.20
2019,10,09,17,01,5.20
2019,10,09,17,02,5.20
2019,10,09,17,03,5.20
2019,10,09,17,04,5.10
2019,10,09,17,05,5.10
2019,10,09,17,06,5.10
2019,10,09,17,07,5.10
2019,10,09,17,08,5.00
2019,10,09,17,09,5.00
2019,10,09,17,10,4.90
2019,10,09,17,11,4.90
2019,10,09,17,12,4.90
2019,10,09,17,13,4.90
2019,10,09,17,14,4.90
2019,10,09,17,15,4.90
2019,10,09,17,16,4.80
2019,10,09,17,17,4.80
2019,10,09,17,18,4.80
2019,10,09,17,19,4.80
2019,10,09,17,20,4.80
2019,10,09,17,21,4.80
2019,10,09,17,22,4.80
2019,10,09,17,23,4.80
2019,10,09,17,24,4.80
2019,10,09,17,25,4.80
2019,10,09,17,26,4.80
2019,10,09,17,27,4.80
2019,10,09,17,28,4.80
2019,10,09,17,29,4.80
2019,10,09,17,30,4.80
2019,10,09,17,31,4.80
2019,10,09,17,32,4.80
2019,10,09,17,33,4.80
2019,10,09,17,34,4.80
2019,10,09,17,35,4.80
2019,10,09,17,36,4.80
2019,10,09,17,37,4.80
2019,10,09,17,38,4.80
2019,10,09,17,39,4.80
2019,10,09,17,40,4.80
2019,10,09,17,41,4.80
2019,10,09,17,42,4.80
2019,10,09,17,43,4.70
2019,10,09,17,44,4.70
2019,10,09,17,45,4.70
2019,10,09,17,46,4.70
2019,10,09,17,47,4.70
2019,10,09,17,48,4.70
2019,10,09,17,49,4.60
2019,10,09,17,50,4.60
2019,10,09,17,51,4.60
2019,10,09,17,52,4.60
2019,10,09,17,53,4.50
2019,10,09,17,54,4.50
2019,10,09,17,55,4.50
2019,10,09,17,56,4.50
2019,10,09,17,57,4.40
2019,10,09,17,58,4.40
2019,10,09,17,59,4.40
2019,10,09,18,00,4.40
2019,10,09,18,01,4.30
2019,10,09,18,02,4.30